Weather Roundup
Issued by NWS Springfield, MO

Home | Current Version | Previous Version | Text Only | Print | Product List | Glossary On
Versions: 1 2 3 4 5 6 7 8 9 10 11 12 13 14 15 16 17 18 19 20 21 22 23 24 25 26 27 28 29 30 31 32 33 34 35 36 37 38 39 40 41 42 43 44 45 46 47 48 49 50
000
NZUS99 KSGF 242157
HRRSGF

HOURLY WEATHER
NATIONAL WEATHER SERVICE SPRINGFIELD MO
500 PM CDT SUN SEP 24 2017

......SGF CWA......

CITY           SKY/WX    TMP DP  RH WIND       PRES   REMARKS
SPRINGFIELD    PTSUNNY   81  71  71 N5        29.95F
JOPLIN         MOSUNNY   87  68  52 SE7       29.91F HX  90
WEST PLAINS    MOSUNNY   89  63  41 VRB5      29.98S HX  90
ROLLA          TSTM      85  66  53 SW6       29.98R
BRANSON        PTSUNNY   68  64  88 SW7       29.99F THUNDER

......SURROUNDING SGF CWA......

CITY           SKY/WX    TMP DP  RH WIND       PRES   REMARKS
CHANUTE        MOSUNNY   86  66  51 S9        29.90F
PARSONS        MOSUNNY   87  65  47 VRB6      29.90F
COFFEYVILLE    MOSUNNY   88  68  51 SW8       29.88F HX  91
EMPORIA        MOSUNNY   87  63  44 SE14      29.88F
HARRISON AR    CLOUDY    80  67  64 SE10      29.98S

......KANSAS AND MISSOURI......

CITY           SKY/WX    TMP DP  RH WIND       PRES   REMARKS
KANSAS CTY INT MOSUNNY   86  67  52 S10       29.91F
SEDALIA        SUNNY     89  68  49 S8        29.95F HX  93
ST JOSEPH      SUNNY     88  66  48 S13       29.89F HX  90
ST LOUIS       MOSUNNY   90  63  40 E6        29.96S HX  91
WICHITA        PTSUNNY   87  63  44 S16       29.86S
TOPEKA         MOSUNNY   87  66  49 SE13      29.88F
OLATHE         MOSUNNY   84  67  56 S10       29.91F

......TENNESSEE......

CITY           SKY/WX    TMP DP  RH WIND       PRES   REMARKS
MEMPHIS        PTSUNNY   82  65  56 E6        29.96S
NASHVILLE      CLOUDY    86  63  45 SE6       30.00S

......ARKANSAS.......

CITY           SKY/WX    TMP DP  RH WIND       PRES   REMARKS
FAYETTEVILLE   MOSUNNY   87  65  47 S6        29.93F
FT SMITH       SUNNY     92  61  35 SE10G18   29.88S HX  92
LITTLE ROCK    MOSUNNY   89  65  44 SE13      29.92R HX  91

......OKLAHOMA.......

CITY           SKY/WX    TMP DP  RH WIND       PRES   REMARKS
TULSA          CLOUDY    90  66  45 S12G20    29.85F HX  92
PONCA CITY     MOSUNNY   87  64  46 S17       29.85F
MCALESTER      MOSUNNY   91  64  40 S9        29.88F HX  92
OKLAHOMA CITY  PTSUNNY   85  60  42 S14G21    29.87F

......IOWA............

CITY           SKY/WX    TMP DP  RH WIND       PRES   REMARKS
DES MOINES     NOT AVBL
QUAD CITIES    SUNNY     89  62  40 S6        29.95F

......ILLINOIS........

CITY           SKY/WX    TMP DP  RH WIND       PRES   REMARKS
QUINCY         NOT AVBL
CHICAGO        MOSUNNY   91  56  30 S13       30.00S



USA.gov is the U.S. government's official web portal to all federal, state and local government web resources and services.